Location: ???? ??
(36.0534°N, 43.5630°E)
Time: 23:21:27
(UTC+00:00)

Lacrosse 5 rocket - Pass Details

Date: 18 September 2019
Orbit: 459 x 639 km, 57.0° (Epoch: 15 October)

Event Time Altitude Azimuth Distance (km) Brightness Sun altitude
Rises 17:14:25 0° 227° (SW) 2,469 5.0 -25.4°
Reaches altitude 10° 17:16:32 10° 230° (SW) 1,607 4.0 -25.8°
Enters shadow 17:17:45 20° 235° (SW) 1,130 3.2 -26.0°
